Location: Oakhurst
(33.6448°N, 111.9543°W)
Time: 21:49:56
(UTC+00:00)

FO-99 - Pass Details

Date: 29 July 2021
Orbit: 471 x 503 km, 97.2° (Epoch: 25 September)

Event Time Altitude Azimuth Distance (km) Brightness Sun altitude
Exits shadow 03:52:58 - 192° (SSW) 2,059 ? -15.7°
Reaches altitude 10° 03:53:53 10° 197° (SSW) 1,706 ? -15.9°
Maximum altitude 03:57:13 32° 263° (W) 877 ? -16.4°
Drops below altitude 10° 04:00:36 10° 328° (NNW) 1,723 ? -17.0°
Sets 04:02:51 0° 338° (NNW) 2,612 ? -17.4°
